DW0417 Weather Reports


time (UTC)temp
F
wind
direction
speed
knots
gust
knots
rain 1hr
in
rain 24hr
in
rain mn
in
humidity
%
barometer
mb
20260906061431 74 313 1.7 3.5 0.00 0.00 0.00 49 1017.9
20260906060432 74 265 2.6 1.7 0.00 0.00 0.00 49 1017.4
20260906055225 74 52 0.0 0.0 0.00 0.00 0.00 48 1017.6
20260906054705 74 52 0.0 0.0 0.00 0.00 0.00 47 1018.0
20260906053225 74 73 0.9 3.5 0.00 0.00 0.00 47 1018.3
20260906052226 74 96 4.3 7.8 0.00 0.00 0.00 50 1018.4
20260906051225 74 84 1.7 5.2 0.00 0.00 0.00 47 1018.3
20260906050704 74 82 0.9 3.5 0.00 0.00 0.00 45 1017.8
20260906045226 75 61 0.0 1.7 0.00 0.00 0.00 43 1017.7
20260906044225 75 61 0.0 3.5 0.00 0.00 0.00 43 1017.6
20260906043220 74 56 1.7 3.5 0.00 0.00 0.00 45 1017.6
20260906042220 74 5 0.0 0.9 0.00 0.00 0.00 43 1017.6
20260906041219 74 224 0.9 2.6 0.00 0.00 0.00 45 1017.4
20260906041133 73 224 0.9 3.5 0.00 0.00 0.00 46 1017.3
20260906035656 73 159 0.0 0.0 0.00 0.00 0.00 46 1017.1
20260906034220 74 56 0.0 0.0 0.00 0.00 0.00 46 1016.6
20260906033220 75 56 0.0 2.6 0.00 0.00 0.00 43 1016.6
20260906032220 75 65 0.9 4.3 0.00 0.00 0.00 44 1016.7
20260906031220 76 54 0.0 2.6 0.00 0.00 0.00 43 1016.7
20260906030215 77 55 0.0 2.6 0.00 0.00 0.00 42 1016.3
20260906025214 78 60 0.9 3.5 0.00 0.00 0.00 40 1015.9
20260906024214 80 97 3.5 5.2 0.00 0.00 0.00 37 1015.8
20260906023648 82 147 1.7 5.2 0.00 0.00 0.00 34 1015.8
20260906022214 82 53 0.9 4.3 0.00 0.00 0.00 34 1015.6
20260906021647 82 353 0.0 2.6 0.00 0.00 0.00 34 1015.5
20260906020213 83 260 1.7 6.1 0.00 0.00 0.00 33 1015.7
20260906015213 83 233 5.2 9.6 0.00 0.00 0.00 32 1015.7
20260906014215 83 226 3.5 11.3 0.00 0.00 0.00 33 1015.7
20260906013211 83 233 2.6 8.7 0.00 0.00 0.00 33 1015.6
20260906012211 83 296 3.5 7.8 0.00 0.00 0.00 33 1015.5
20260906011211 84 265 3.5 8.7 0.00 0.00 0.00 31 1015.5
20260906010211 84 261 5.2 9.6 0.00 0.00 0.00 31 1015.5
20260906005210 85 226 4.3 10.4 0.00 0.00 0.00 30 1015.6
20260906004702 86 281 4.3 10.4 0.00 0.00 0.00 31 1015.6
20260906003211 86 287 5.2 10.4 0.00 0.00 0.00 29 1015.7
20260906002210 86 265 5.2 12.2 0.00 0.00 0.00 29 1015.6
20260906001647 87 258 6.1 14.8 0.00 0.00 0.00 29 1015.6
20260906000212 88 262 3.5 8.7 0.00 0.00 0.00 28 1015.5
20260905235211 89 297 1.7 7.0 0.00 0.00 0.00 27 1015.5
20260905234211 89 297 1.7 4.3 0.00 0.00 0.00 26 1015.5
20260905233210 89 298 2.6 6.1 0.00 0.00 0.00 26 1015.3
20260905232212 90 326 0.0 4.3 0.00 0.00 0.00 26 1015.2
20260905231212 90 297 0.0 2.6 0.00 0.00 0.00 26 1015.2
20260905230211 91 304 0.9 2.6 0.00 0.00 0.00 25 1015.1
20260905225212 91 304 0.0 0.0 0.00 0.00 0.00 25 1015.1
20260905225134 91 304 0.0 1.7 0.00 0.00 0.00 24 1015.1
20260905223208 91 316 3.5 8.7 0.00 0.00 0.00 24 1015.1
20260905222209 93 329 0.9 4.3 0.00 0.00 0.00 23 1015.1
20260905221210 94 326 0.0 5.2 0.00 0.00 0.00 23 1015.1
20260905220208 92 304 1.7 4.3 0.00 0.00 0.00 23 1015.2
20260905215208 93 175 0.9 4.3 0.00 0.00 0.00 22 1015.2
20260905214210 94 81 0.9 4.3 0.00 0.00 0.00 23 1015.5
20260905213209 94 47 0.9 5.2 0.00 0.00 0.00 22 1015.6
20260905212208 94 48 1.7 6.1 0.00 0.00 0.00 22 1015.7
20260905211210 94 53 2.6 8.7 0.00 0.00 0.00 24 1015.8
20260905210210 93 75 1.7 7.8 0.00 0.00 0.00 23 1015.8
20260905205209 92 137 2.6 8.7 0.00 0.00 0.00 24 1016.0
20260905204643 92 114 3.5 9.6 0.00 0.00 0.00 24 1016.2
20260905203210 92 81 3.5 7.8 0.00 0.00 0.00 24 1016.4
20260905202206 93 52 1.7 6.1 0.00 0.00 0.00 23 1016.5
20260905201204 92 72 1.7 7.8 0.00 0.00 0.00 23 1016.5
20260905200202 92 51 1.7 7.8 0.00 0.00 0.00 23 1016.6
20260905195638 91 47 3.5 7.8 0.00 0.00 0.00 24 1016.6
20260905194204 91 47 1.7 7.0 0.00 0.00 0.00 24 1016.7
20260905193204 90 343 1.7 6.1 0.00 0.00 0.00 25 1016.9
20260905192203 92 36 1.7 7.8 0.00 0.00 0.00 24 1016.9
20260905191157 91 47 1.7 7.0 0.00 0.00 0.00 24 1017.0
20260905190635 90 40 5.2 13.9 0.00 0.00 0.00 24 1017.2
20260905185157 89 33 6.1 11.3 0.00 0.00 0.00 24 1017.1
20260905184158 89 75 6.1 13.9 0.00 0.00 0.00 26 1017.1
20260905183156 89 63 6.1 13.0 0.00 0.00 0.00 28 1017.3
20260905182156 88 60 6.1 12.2 0.00 0.00 0.00 27 1017.4
20260905181157 88 53 5.2 11.3 0.00 0.00 0.00 28 1017.6
20260905180158 88 44 4.3 9.6 0.00 0.00 0.00 29 1017.6
20260905175157 87 70 2.6 7.8 0.00 0.00 0.00 30 1017.6
20260905174151 88 46 2.6 7.0 0.00 0.00 0.00 29 1017.7
20260905173152 87 64 0.9 8.7 0.00 0.00 0.00 32 1017.7
20260905172148 85 66 3.5 7.8 0.00 0.00 0.00 33 1017.7
20260905171148 85 56 3.5 8.7 0.00 0.00 0.00 32 1017.6
20260905170148 85 352 4.3 10.4 0.00 0.00 0.00 32 1017.4
20260905165149 85 20 4.3 9.6 0.00 0.00 0.00 31 1017.6
20260905164148 85 39 3.5 8.7 0.00 0.00 0.00 33 1017.4
20260905163629 85 58 3.5 7.8 0.00 0.00 0.00 34 1017.4
20260905162149 84 64 3.5 9.6 0.00 0.00 0.00 34 1017.3
20260905161143 83 51 3.5 9.6 0.00 0.00 0.00 35 1017.3
20260905160614 82 45 3.5 8.7 0.00 0.00 0.00 36 1017.4
20260905155143 81 72 1.7 5.2 0.00 0.00 0.00 40 1017.4
20260905154142 79 47 1.7 5.2 0.00 0.00 0.00 43 1017.2
20260905153142 78 52 1.7 5.2 0.00 0.00 0.00 41 1017.2
20260905152623 77 46 1.7 4.3 0.00 0.00 0.00 44 1017.3
20260905151143 77 79 1.7 2.6 0.00 0.00 0.00 44 1017.3
20260905150143 78 65 1.7 3.5 0.00 0.00 0.00 46 1017.3
20260905145619 77 80 0.9 3.5 0.00 0.00 0.00 41 1017.2
20260905144135 76 82 1.7 3.5 0.00 0.00 0.00 44 1017.3
20260905143133 75 156 0.0 1.7 0.00 0.00 0.00 44 1017.3
20260905142609 73 82 0.0 1.7 0.00 0.00 0.00 49 1017.4
20260905141134 72 82 0.9 2.6 0.00 0.00 0.00 51 1017.3
20260905140135 69 173 0.0 0.9 0.00 0.00 0.00 52 1017.3
20260905135135 67 314 0.0 0.9 0.00 0.00 0.00 56 1017.3
20260905134135 65 314 0.0 0.0 0.00 0.00 0.00 63 1017.2
20260905133617 63 314 0.0 1.7 0.00 0.00 0.00 64 1017.3
20260905132136 62 292 0.0 0.0 0.00 0.00 0.00 65 1017.2
20260905131132 61 291 0.0 0.0 0.00 0.00 0.00 68 1017.1
20260905130133 60 168 0.0 0.0 0.00 0.00 0.00 68 1017.0
20260905125131 59 168 0.0 0.0 0.00 0.00 0.00 71 1017.0
20260905124615 58 168 0.0 0.0 0.00 0.00 0.00 70 1016.6
20260905124044 59 186 0.0 0.0 0.00 0.00 0.00 67 1016.6
20260905122133 60 22 0.0 0.0 0.00 0.00 0.00 65 1016.5
20260905121132 59 199 0.0 0.0 0.00 0.00 0.00 65 1016.5
20260905121058 59 200 0.0 0.0 0.00 0.00 0.00 66 1016.4
20260905115619 58 199 0.0 1.7 0.00 0.00 0.00 67 1016.5
20260905114131 59 259 0.0 0.9 0.00 0.00 0.00 70 1016.4
20260905113129 59 259 0.0 0.0 0.00 0.00 0.00 71 1016.5
20260905112618 59 274 0.0 0.0 0.00 0.00 0.00 72 1016.6
20260905111129 60 274 0.0 0.9 0.00 0.00 0.00 70 1016.6
20260905110130 60 275 0.0 0.0 0.00 0.00 0.00 69 1016.7
20260905105602 60 275 0.0 0.9 0.00 0.00 0.00 68 1016.6
20260905104127 61 191 0.0 0.0 0.00 0.00 0.00 67 1016.5
20260905103126 60 190 0.0 0.0 0.00 0.00 0.00 67 1016.5
20260905102127 60 191 0.0 0.9 0.00 0.00 0.00 66 1016.3
20260905101126 60 53 0.0 1.7 0.00 0.00 0.00 67 1016.3
20260905100126 61 60 0.0 0.9 0.00 0.00 0.00 65 1016.2
20260905095126 61 60 0.9 1.7 0.00 0.00 0.00 63 1016.0
20260905094126 62 195 0.9 2.6 0.00 0.00 0.00 62 1015.7
20260905093125 62 179 0.0 2.6 0.00 0.00 0.00 64 1015.7
20260905092126 62 342 0.0 0.0 0.00 0.00 0.00 64 1015.7
20260905091127 62 342 0.0 0.9 0.00 0.00 0.00 61 1015.7
20260905090126 63 354 0.0 0.9 0.00 0.00 0.00 59 1015.6
20260905085127 64 354 0.0 0.9 0.00 0.00 0.00 57 1015.6
20260905084603 64 354 0.0 0.0 0.00 0.00 0.00 54 1015.5
20260905083609 64 355 0.0 0.0 0.00 0.00 0.00 54 1015.6
20260905082121 64 355 0.0 0.9 0.00 0.00 0.00 56 1015.6
20260905081119 65 355 0.0 0.0 0.00 0.00 0.00 55 1015.5
20260905080119 65 355 0.0 0.9 0.00 0.00 0.00 53 1015.6
20260905075121 65 208 0.0 0.9 0.00 0.00 0.00 55 1015.6
20260905074119 65 42 0.0 0.0 0.00 0.00 0.00 54 1015.5
20260905073121 67 42 0.9 2.6 0.00 0.00 0.00 50 1015.6
20260905072558 68 224 0.0 1.7 0.00 0.00 0.00 49 1015.3
20260905071120 67 188 0.0 0.0 0.00 0.00 0.00 50 1015.3
20260905070114 67 187 0.0 0.0 0.00 0.00 0.00 51 1015.6
20260905065114 67 177 0.0 0.0 0.00 0.00 0.00 50 1015.5
20260905064113 66 176 0.0 0.0 0.00 0.00 0.00 52 1015.5
20260905063113 67 102 0.0 0.9 0.00 0.00 0.00 52 1015.5